Location: Miss�
(46.9484°N, 0.1922°W)
Time: 02:53:41
(UTC+00:00)

ATLAS CENTAUR R/B - Pass Details

Date: 02 March 2021
Orbit: 475 x 670 km, 64.7° (Epoch: 30 March)

Event Time Altitude Azimuth Distance (km) Brightness Sun altitude
Rises 18:16:28 0° 169° (S) 2,523 4.6 -5.7°
Reaches altitude 10° 18:19:31 10° 141° (SE) 1,640 3.4 -6.2°
Maximum altitude 18:21:16 13° 112° (ESE) 1,461 2.9 -6.5°
Drops below altitude 10° 18:23:01 10° 83° (E) 1,647 3.1 -6.8°
Enters shadow 18:23:33 - 76° (ENE) 1,768 3.3 -6.9°
